Location: Newark
(25.0000°N, 73.5000°E)
Time: 22:09:04
(UTC+00:00)

Transit 2A Rocket - Pass Details

Date: 07 August 2021
Orbit: 586 x 916 km, 66.7° (Epoch: 16 September)

Event Time Altitude Azimuth Distance (km) Brightness Sun altitude
Rises 16:42:56 0° 345° (NNW) 3,394 9.1 -35.1°
Reaches altitude 10° 16:45:26 10° 351° (N) 2,498 8.2 -35.5°
Enters shadow 16:48:14 28° 7° (N) 1,604 6.9 -36.0°
